[[{"header":{"parameterUnit":"m.s-1","parameterCategory":1,"la1":30.2991,"la2":30.254,"lo1":-89.0895,"lo2":-89.0444,"dy":0.0017,"dx":0.0017,"nx":28,"ny":28,"refTime":"2024-07-27T21:00:00:Z","depth":0,"parameterNumber":2,"parameterNumberName":"U-component_of_WINDS"},"data":[0,0,0,0,0,0,0,0,0,0,0,0,0,0,0,0,0,0,0,0,0,0,0,0,0,0,0,0,0,0,0,0,0,0,0,0,0,0,0,0,0,0,0,0,0,0,0,0,0,0,0,0,0,0,0,0,0,0,-0.434,-0.4338,0,-0.4149,-0.4147,-0.4145,-0.402,-0.4019,-0.4018,-0.4017,-0.3818,-0.3813,-0.3809,0,0,0,0,0,0,0,0,0,0,0,0,0,-0.4593,-0.4589,-0.434,-0.4338,-0.4335,-0.415,-0.4147,-0.4144,-0.402,-0.4019,-0.4018,-0.4017,-0.3819,-0.3814,-0.3809,0,0,0,0,0,0,0,0,0,0,0,0,0,-0.4451,-0.4588,-0.4341,-0.4251,-0.4241,-0.415,-0.4147,-0.4144,-0.402,-0.4019,-0.4018,-0.4016,-0.3821,-0.3815,-0.3808,-0.379,0,0,-0.3787,-0.3784,0,0,0,0,0,0,0,0,-0.4459,-0.4442,-0.4266,-0.4257,-0.4246,-0.4107,-0.4163,-0.4025,-0.402,-0.4104,-0.4017,-0.4016,-0.3915,-0.39,-0.3867,-0.378,-0.3772,-0.3786,-0.3782,-0.3779,-0.3777,0,0,0,0,0,0,0,-0.4469,-0.4449,-0.4264,-0.4264,-0.4251,-0.4219,-0.4198,-0.4136,-0.4018,-0.4096,-0.4087,-0.4066,-0.3909,-0.3874,-0.3861,-0.3769,-0.3786,-0.378,-0.3776,-0.3774,-0.3658,-0.3659,0,0,0,0,0,0,-0.4494,-0.4458,-0.427,-0.4259,-0.4352,-0.4216,-0.4191,-0.4153,-0.4019,-0.3997,-0.4067,-0.4061,-0.3886,-0.3869,-0.3854,-0.3823,-0.3779,-0.3773,-0.3769,-0.3657,-0.3658,-0.3659,0,0,0,0,0,0,-0.45,-0.4478,-0.4278,-0.4356,-0.4328,-0.4213,-0.417,-0.415,-0.4114,-0.3997,-0.3975,-0.4054,-0.3884,-0.3863,-0.3807,-0.3815,-0.377,-0.3764,-0.3655,-0.3657,-0.3658,-0.3764,0,0,0,0,0,0,-0.4508,-0.4481,-0.4474,-0.4357,-0.4324,-0.4236,-0.417,-0.4147,-0.4103,-0.4093,-0.3978,-0.3958,-0.3882,-0.3818,-0.38,-0.3805,-0.3758,-0.3654,-0.3656,-0.3658,-0.3759,-0.3769,-0.3777,0,0,0,0,0,-0.4517,-0.451,-0.4474,-0.4452,-0.4313,-0.4237,-0.4218,-0.4132,-0.4105,-0.4096,-0.402,-0.3961,-0.3817,-0.3813,-0.3792,-0.3795,-0.3653,-0.3656,-0.3658,-0.3755,-0.3767,-0.3777,0,0,0,0,0,0,-0.463,-0.4493,-0.4452,-0.4407,-0.4335,-0.4216,-0.4202,-0.4147,-0.408,-0.4073,-0.3968,-0.3943,-0.3897,-0.384,-0.3838,-0.377,-0.3728,-0.3726,-0.3809,-0.3819,-0.3828,-0.3842,-0.3753,0,0,0,0,0,-0.465,-0.46,-0.4483,-0.4455,-0.4421,-0.4318,-0.4281,-0.4222,-0.4142,-0.411,-0.403,-0.3954,-0.3891,-0.3852,-0.3788,-0.375,-0.3723,-0.3742,-0.3751,-0.3759,-0.3758,-0.3734,-0.374,-0.3667,-0.3667,-0.3667,0,0,-0.469,-0.4609,-0.4584,-0.4476,-0.4412,-0.4362,-0.4293,-0.4243,-0.4204,-0.4102,-0.4044,-0.3983,-0.3891,-0.3844,-0.3819,-0.3795,-0.3773,-0.3762,-0.3769,-0.3764,-0.3737,-0.3744,-0.375,-0.3668,-0.3668,-0.3668,0,0,-0.4737,-0.4672,-0.4641,-0.458,-0.4485,-0.4417,-0.441,-0.4299,-0.4255,-0.4196,-0.4118,-0.407,-0.3965,-0.3902,-0.3857,-0.3882,-0.3825,-0.3864,-0.3911,-0.3888,-0.3894,-0.3898,-0.3907,-0.3911,-0.3864,-0.3864,-0.3865,0,-0.4799,-0.4721,-0.4632,-0.4586,-0.4541,-0.4448,-0.4415,-0.4359,-0.4249,-0.4219,-0.4194,-0.406,-0.3991,-0.3928,-0.3935,-0.3901,-0.3889,-0.3876,-0.3901,-0.3904,-0.3907,-0.3914,-0.3917,-0.387,-0.3869,-0.3869,-0.3868,0,-0.4801,-0.4749,-0.4735,-0.4632,-0.4585,-0.4546,-0.445,-0.4413,-0.4358,-0.4292,-0.4233,-0.4148,-0.4065,-0.4045,-0.399,-0.3974,-0.3962,-0.3921,-0.3876,-0.3921,-0.3926,-0.3928,-0.3877,-0.3876,-0.3874,-0.3873,0,0,-0.4913,-0.4762,-0.4758,-0.4711,-0.46,-0.4557,-0.4515,-0.4435,-0.4405,-0.4332,-0.4293,-0.4206,-0.4167,-0.4116,-0.4053,-0.4033,-0.4058,-0.3993,-0.3989,-0.4008,-0.4035,-0.4067,-0.4071,-0.402,-0.402,-0.4021,-0.4042,0,-0.4943,-0.4863,-0.4781,-0.4729,-0.4679,-0.459,-0.4553,-0.4481,-0.4419,-0.4366,-0.4297,-0.4237,-0.419,-0.4159,-0.4135,-0.4061,-0.4062,-0.4058,-0.3981,-0.398,-0.4007,-0.4074,-0.4107,-0.4131,-0.4044,-0.4044,-0.4044,0,-0.4967,-0.49,-0.4844,-0.4738,-0.4714,-0.4682,-0.4603,-0.4554,-0.4471,-0.4427,-0.437,-0.4304,-0.4254,-0.4216,-0.4145,-0.4144,-0.4108,-0.4066,-0.4065,-0.4054,-0.4014,-0.4063,-0.4137,-0.4141,-0.4046,-0.4046,-0.4046,0,-0.5054,-0.4949,-0.4902,-0.4864,-0.474,-0.4719,-0.4667,-0.4582,-0.4539,-0.447,-0.4441,-0.4366,-0.4325,-0.4268,-0.4183,-0.4164,-0.4121,-0.4076,-0.4082,-0.4084,-0.4075,-0.4077,-0.4144,-0.4054,-0.4054,-0.4054,-0.4054,0,-0.5096,-0.5065,-0.4939,-0.491,-0.4872,-0.4779,-0.4743,-0.4683,-0.4608,-0.4565,-0.4483,-0.4444,-0.4335,-0.4283,-0.4216,-0.4167,-0.4149,-0.4111,-0.4093,-0.4118,-0.4123,-0.4092,-0.4088,-0.4055,-0.4055,-0.4055,-0.4055,0,-0.5186,-0.5101,-0.5043,-0.4932,-0.4903,-0.488,-0.4783,-0.4751,-0.4685,-0.4631,-0.4613,-0.4508,-0.4443,-0.4353,-0.4259,-0.4214,-0.4173,-0.4146,-0.4202,-0.4192,-0.4202,-0.4202,-0.4251,-0.4252,-0.4164,-0.4165,-0.4166,0,-0.5218,-0.5192,-0.5078,-0.5044,-0.4994,-0.494,-0.4897,-0.4804,-0.4762,-0.4665,-0.4644,-0.4573,-0.451,-0.4409,-0.4324,-0.4252,-0.4221,-0.4244,-0.421,-0.4235,-0.4221,-0.4223,-0.422,-0.4252,-0.4253,-0.4254,-0.4255,0,-0.5284,-0.5243,-0.5185,-0.5111,-0.5062,-0.5,-0.4933,-0.491,-0.4802,-0.4759,-0.4692,-0.4644,-0.4548,-0.4478,-0.4394,-0.4338,-0.4279,-0.4267,-0.4264,-0.4288,-0.4322,-0.4303,-0.4224,-0.4266,-0.4265,-0.4264,-0.4263,-0.4263,-0.5345,-0.5318,-0.5234,-0.5171,-0.5112,-0.5052,-0.5016,-0.4946,-0.4889,-0.4805,-0.4753,-0.4688,-0.4604,-0.4486,-0.4434,-0.438,-0.4357,-0.4353,-0.4352,-0.4352,-0.436,-0.4331,-0.4365,-0.4364,-0.4364,-0.4364,-0.4363,0,-0.5406,-0.5348,-0.5291,-0.5202,-0.5152,-0.5102,-0.5026,-0.4988,-0.4932,-0.486,-0.4801,-0.4723,-0.4654,-0.4565,-0.449,-0.4464,-0.4435,-0.4448,-0.4448,-0.4436,-0.4386,-0.4396,-0.4473,-0.4473,-0.4473,-0.4473,-0.4473,-0.4473,-0.5432,-0.5384,-0.5333,-0.5254,-0.5195,-0.5132,-0.5093,-0.5037,-0.4979,-0.4896,-0.484,-0.4782,-0.4702,-0.4621,-0.4556,-0.4531,-0.4507,-0.4528,-0.4495,-0.445,-0.444,-0.443,-0.4439,-0.4524,-0.4524,-0.4549,-0.4549,-0.455]},{"header":{"parameterUnit":"m.s-1","parameterCategory":1,"la1":30.2991,"la2":30.254,"lo1":-89.0895,"lo2":-89.0444,"dy":0.0017,"dx":0.0017,"nx":28,"ny":28,"refTime":"2024-07-27T21:00:00:Z","depth":0,"parameterNumber":3,"parameterNumberName":"V-component_of_WINDS"},"data":[0,0,0,0,0,0,0,0,0,0,0,0,0,0,0,0,0,0,0,0,0,0,0,0,0,0,0,0,0,0,0,0,0,0,0,0,0,0,0,0,0,0,0,0,0,0,0,0,0,0,0,0,0,0,0,0,0,0,3.1593,3.1593,0,3.1591,3.1591,3.159,3.1608,3.1609,3.1609,3.161,3.1604,3.1603,3.1603,0,0,0,0,0,0,0,0,0,0,0,0,0,3.161,3.161,3.1593,3.1593,3.1593,3.1591,3.1591,3.159,3.1608,3.1609,3.1609,3.161,3.1604,3.1603,3.1603,0,0,0,0,0,0,0,0,0,0,0,0,0,3.1605,3.161,3.1593,3.1601,3.1602,3.1591,3.1591,3.159,3.1608,3.1609,3.161,3.161,3.1604,3.1603,3.1602,3.1581,0,0,3.16,3.1599,0,0,0,0,0,0,0,0,3.1605,3.1604,3.16,3.1601,3.1602,3.1601,3.1594,3.1587,3.1608,3.1606,3.161,3.1611,3.1602,3.1601,3.1599,3.1581,3.1581,3.1599,3.1599,3.1598,3.1598,0,0,0,0,0,0,0,3.1605,3.1604,3.1592,3.16,3.1601,3.1605,3.1605,3.1593,3.1599,3.1606,3.1607,3.1607,3.1602,3.16,3.1599,3.1581,3.1599,3.1599,3.1598,3.1598,3.1546,3.1545,0,0,0,0,0,0,3.1605,3.1604,3.1592,3.1592,3.1605,3.1604,3.1604,3.16,3.16,3.16,3.1606,3.1608,3.1601,3.16,3.1599,3.1575,3.1598,3.1598,3.1597,3.1547,3.1546,3.1545,0,0,0,0,0,0,3.1605,3.1604,3.1592,3.1598,3.1597,3.1603,3.1598,3.16,3.1597,3.16,3.1601,3.1603,3.1602,3.16,3.1586,3.1575,3.1597,3.1596,3.1548,3.1547,3.1546,3.1526,0,0,0,0,0,0,3.1606,3.1604,3.1596,3.1598,3.1597,3.158,3.1598,3.1599,3.1596,3.1598,3.1597,3.1597,3.1602,3.1587,3.1585,3.1574,3.1596,3.1549,3.1547,3.1546,3.1527,3.1524,3.1521,0,0,0,0,0,3.1606,3.159,3.1596,3.1594,3.1588,3.1579,3.1578,3.1585,3.1595,3.1587,3.1589,3.1597,3.1576,3.1586,3.1583,3.1572,3.155,3.1548,3.1546,3.1529,3.1525,3.1521,0,0,0,0,0,0,3.1584,3.159,3.1597,3.1581,3.158,3.1582,3.1573,3.158,3.1576,3.1577,3.1585,3.1585,3.1569,3.1569,3.1579,3.1552,3.1565,3.1562,3.1552,3.1548,3.1545,3.1545,3.1595,0,0,0,0,0,3.1578,3.1572,3.1576,3.1562,3.1561,3.1567,3.1563,3.1569,3.1568,3.1567,3.1568,3.1565,3.1558,3.1553,3.1547,3.1528,3.1528,3.1518,3.1515,3.1513,3.151,3.1501,3.1497,3.1539,3.1539,3.1539,0,0,3.1564,3.1567,3.1562,3.1558,3.1557,3.155,3.1566,3.1557,3.1552,3.1565,3.1552,3.1553,3.1551,3.1534,3.1527,3.1533,3.1499,3.151,3.1508,3.1507,3.1498,3.1494,3.1491,3.1538,3.1538,3.1538,0,0,3.1536,3.1537,3.1525,3.1525,3.1525,3.1529,3.1527,3.1528,3.153,3.1517,3.1528,3.1521,3.1508,3.1506,3.1504,3.1476,3.1483,3.1473,3.1457,3.1447,3.1444,3.1441,3.1431,3.1428,3.1471,3.1471,3.1471,0,3.1518,3.1508,3.1518,3.1509,3.1506,3.152,3.1508,3.1507,3.1504,3.1502,3.151,3.1496,3.1495,3.1478,3.1472,3.1469,3.1466,3.1473,3.1444,3.1441,3.1438,3.1429,3.1426,3.147,3.147,3.147,3.147,0,3.1487,3.148,3.147,3.1469,3.1466,3.1455,3.1463,3.1458,3.1464,3.1467,3.1455,3.1455,3.1449,3.1446,3.1451,3.143,3.1434,3.1443,3.1456,3.1433,3.1425,3.1421,3.1468,3.1469,3.1469,3.1469,0,0,3.1443,3.1449,3.1445,3.1445,3.1447,3.1441,3.1431,3.1427,3.1423,3.1421,3.1413,3.1403,3.1411,3.1408,3.1414,3.1405,3.1384,3.1415,3.1415,3.1409,3.1361,3.1355,3.1351,3.1389,3.1388,3.1388,3.1362,0,3.1415,3.14,3.1409,3.1392,3.1385,3.1399,3.139,3.139,3.1393,3.1387,3.139,3.1383,3.1395,3.1393,3.1386,3.1388,3.1374,3.139,3.1381,3.138,3.1381,3.1346,3.1339,3.1315,3.1358,3.1358,3.1357,0,3.1381,3.1379,3.1362,3.1366,3.1364,3.1356,3.1353,3.1348,3.1348,3.1351,3.1349,3.1356,3.1346,3.136,3.1346,3.1357,3.1353,3.1354,3.1353,3.1352,3.1367,3.1345,3.1307,3.1303,3.1352,3.1353,3.1353,0,3.1351,3.1344,3.1334,3.1333,3.1338,3.1332,3.1333,3.1334,3.1331,3.1329,3.1327,3.1323,3.132,3.1317,3.1323,3.1332,3.1308,3.1322,3.131,3.131,3.1304,3.1304,3.1265,3.1302,3.1302,3.1302,3.1302,0,3.1319,3.1308,3.1321,3.1314,3.1302,3.1312,3.13,3.1302,3.1303,3.1297,3.1308,3.1301,3.131,3.1304,3.1308,3.1297,3.1295,3.1297,3.1298,3.1296,3.1296,3.1294,3.1296,3.1301,3.1301,3.1301,3.1302,0,3.1284,3.1292,3.1281,3.1287,3.1288,3.1279,3.1283,3.1277,3.1281,3.1273,3.1272,3.1278,3.1272,3.1278,3.1272,3.1275,3.1259,3.1263,3.126,3.1261,3.1248,3.125,3.1207,3.1202,3.1241,3.1241,3.1241,0,3.1263,3.1255,3.1261,3.1258,3.1259,3.1254,3.1252,3.1261,3.1259,3.1259,3.1252,3.1248,3.1244,3.1234,3.1237,3.1233,3.1237,3.1222,3.1236,3.1234,3.1237,3.1237,3.1237,3.1219,3.1219,3.1218,3.1218,0,3.1225,3.123,3.1227,3.1226,3.1223,3.1222,3.1222,3.1219,3.1229,3.1225,3.122,3.1218,3.1212,3.1207,3.1204,3.1205,3.1213,3.1214,3.1211,3.1208,3.1207,3.1208,3.1252,3.1214,3.1215,3.1215,3.1215,3.1215,3.1197,3.1191,3.1194,3.1191,3.1192,3.1192,3.1187,3.1191,3.1187,3.1185,3.119,3.1184,3.1185,3.1182,3.1181,3.1176,3.1182,3.1177,3.1176,3.1175,3.1174,3.1208,3.1175,3.1175,3.1175,3.1176,3.1176,0,3.116,3.1163,3.116,3.116,3.1158,3.1167,3.1168,3.1165,3.1159,3.116,3.1157,3.1151,3.1147,3.1151,3.1147,3.1142,3.1146,3.1141,3.1141,3.1141,3.1168,3.1171,3.1138,3.1138,3.1138,3.1138,3.1138,3.1138,3.114,3.1131,3.1136,3.1128,3.1131,3.1126,3.1125,3.1125,3.1126,3.112,3.1117,3.112,3.1122,3.1119,3.1115,3.1116,3.1114,3.1108,3.111,3.1135,3.1139,3.1143,3.1146,3.1107,3.1107,3.1084,3.1084,3.1084]}]]